Content
SEND FEEDBACK

Daily
Averages
Monthly
Summary
United States of America

RED WING, MINNESOTA


Home > North America > United States > Minnesota
Elevation: 239 meters     Latitude: 44 34N     Longitude: 092 33W

WEATHER
 
SELECT A DAY
Number of Records: 460,566;   Date Range: 1/1/95 - 7/20/14
 
SHARE

PRINT THIS DATA

[ ← Previous Day ]
WEATHER ALMANAC - 31 JANUARY, 2013
[ Next Day → ]
[ °F ]   °C
Weather ElementAverageHighLow
Temperature-14.8 °C-11 °C (12:35 am)-21 °C (11:55 pm)
Dewpoint-19.7 °C-15 °C (12:35 am)-25 °C (11:35 pm)
Humidity67.1 %73 % (12:35 am)56 % (1:55 pm)
Barometer1014.9 hPa1024 hPa (11:55 pm)1006.4 hPa (12:35 am)
Wind Speed19.5 km/h29.6 km/h (4:55 pm)
Wind Gust40.7 km/h (5:35 pm)
Weather ElementAverage
Visibility11.3 km
Wind DirectionWNW (306.7 °)

Weather ElementTotal
Precipitation---
Heating Degree Days34.3 (Base 18.3)
Averaged from 69 records on 31 January, 2013
WEATHER CONDITIONS BREAKOUT
WIND DIRECTION BREAKOUT
WEATHER BY HOUR - 31 JANUARY, 2013
[ °F ]   °C
Local TimeTemperatureDewpointHumidityBarometerVisibilityWind DirectionWind SpeedGust SpeedPrecipitationEventsConditions
12:35 AM-11 °C-15 °C73 %1006.4 hPa16.1 kmNW (310°)20.4 km/h33.3 km/hOvercast
12:55 AM-11 °C-16 °C67 %1006.8 hPa11.3 kmWNW (300°)22.2 km/hOvercast
1:15 AM-11 °C-16 °C67 %1006.8 hPa11.3 kmNW (310°)14.8 km/h33.3 km/hOvercast
1:35 AM-12 °C-16 °C73 %1007.1 hPa16.1 kmNW (310°)18.5 km/h33.3 km/hOvercast
1:55 AM-12 °C-17 °C67 %1007.5 hPa16.1 kmNW (310°)14.8 km/h33.3 km/hOvercast
2:15 AM-12 °C-17 °C67 %1007.8 hPa16.1 kmWNW (290°)25.9 km/h31.5 km/hMostly Cloudy
2:35 AM-13 °C-17 °C73 %1007.8 hPa8 kmWNW (300°)22.2 km/h29.6 km/hHaze
2:55 AM-13 °C-17 °C73 %1007.8 hPa8 kmWNW (300°)14.8 km/hSnowLight Snow
3:15 AM-13 °C-17 °C73 %1007.8 hPa8 kmWNW (300°)11.1 km/hSnowLight Snow
3:35 AM-13 °C-17 °C73 %1007.8 hPa16.1 kmNW (320°)14.8 km/h27.8 km/hOvercast
3:55 AM-13 °C-17 °C73 %1008.1 hPa16.1 kmNW (310°)9.3 km/hOvercast
4:15 AM-13 °C-17 °C73 %1008.1 hPa11.3 kmNW (310°)18.5 km/h27.8 km/hOvercast
4:35 AM-13 °C-17 °C73 %1008.5 hPa16.1 kmWNW (300°)24.1 km/h31.5 km/hOvercast
4:55 AM-13 °C-17 °C73 %1008.8 hPa11.3 kmWNW (290°)18.5 km/h25.9 km/hOvercast
5:15 AM-13 °C-17 °C73 %1008.8 hPa8 kmNW (310°)18.5 km/h25.9 km/hHaze
5:35 AM-13 °C-18 °C67 %1009.1 hPa16.1 kmNW (310°)18.5 km/h31.5 km/hOvercast
5:55 AM-13 °C-18 °C67 %1009.1 hPa11.3 kmWNW (300°)16.7 km/hOvercast
6:15 AM-14 °C-18 °C72 %1009.8 hPa11.3 kmNW (320°)20.4 km/h27.8 km/hOvercast
6:35 AM-14 °C-18 °C72 %1010.2 hPa11.3 kmWNW (300°)24.1 km/h29.6 km/hOvercast
6:55 AM-14 °C-18 °C72 %1010.5 hPa8 kmNW (320°)20.4 km/h29.6 km/hSnowLight Snow
7:15 AM-14 °C-19 °C67 %1010.5 hPa11.3 kmNW (310°)16.7 km/h33.3 km/hOvercast
7:35 AM-14 °C-18 °C72 %1011.2 hPa6.4 kmNW (310°)14.8 km/hSnowLight Snow
7:55 AM-14 °C-18 °C72 %1011.2 hPa2.9 kmNW (310°)20.4 km/h31.5 km/hSnowLight Snow
8:15 AM-14 °C-18 °C72 %1011.5 hPa2.9 kmWNW (290°)20.4 km/h31.5 km/hSnowLight Snow
8:35 AM-14 °C-18 °C72 %1011.9 hPa3.2 kmWNW (300°)18.5 km/h29.6 km/hSnowLight Snow
8:55 AM-14 °C-19 °C67 %1012.2 hPa11.3 kmNW (320°)18.5 km/h25.9 km/hOvercast
9:20 AM-14 °C-18 °C72 %1012.9 hPa4 kmNW (320°)18.5 km/h31.5 km/hSnowLight Snow
9:35 AM-14 °C-19 °C67 %1013.2 hPa16.1 kmNNW (330°)18.5 km/h29.6 km/hMostly Cloudy
9:55 AM-14 °C-19 °C67 %1013.5 hPa4 kmNW (320°)16.7 km/h25.9 km/hHaze
10:15 AM-14 °C-19 °C67 %1013.9 hPa2.4 kmNW (320°)18.5 km/h31.5 km/hSnowLight Snow
10:35 AM-14 °C-20 °C61 %1014.2 hPa4.8 kmNW (310°)24.1 km/hHaze
11:00 AM-14 °C-20 °C61 %1014.6 hPa8 kmNNW (330°)18.5 km/h33.3 km/hHaze
11:15 AM-14 °C-19 °C67 %1014.6 hPa6.4 kmNW (320°)22.2 km/hHaze
11:36 AM-14 °C-19 °C67 %1014.6 hPa3.2 kmNW (310°)13 km/h25.9 km/hSnowLight Snow
11:55 AM-14 °C-20 °C61 %1014.9 hPa6.4 kmNW (320°)13 km/h35.2 km/hHaze
12:15 PM-14 °C-19 °C67 %1014.9 hPa4.8 kmNW (310°)14.8 km/h35.2 km/hHaze
12:36 PM-15 °C-20 °C66 %1015.2 hPa4 kmNW (320°)18.5 km/hHaze
12:55 PM-14 °C-20 °C61 %1015.6 hPa8 kmNNW (330°)24.1 km/h38.9 km/hHaze
1:15 PM-15 °C-21 °C61 %1015.6 hPa4.8 kmNW (320°)20.4 km/h33.3 km/hHaze
1:36 PM-14 °C-19 °C67 %1015.9 hPa4 kmNW (320°)16.7 km/h25.9 km/hHaze
1:55 PM-15 °C-22 °C56 %1016.3 hPa16.1 kmNW (320°)16.7 km/h38.9 km/hMostly Cloudy
2:15 PM-14 °C-21 °C56 %1016.3 hPa16.1 kmNW (310°)24.1 km/h35.2 km/hScattered Clouds
2:36 PM-14 °C-20 °C61 %1016.6 hPa4 kmNW (310°)20.4 km/h37 km/hHaze
2:55 PM-15 °C-21 °C61 %1016.9 hPa8 kmNW (310°)20.4 km/h29.6 km/hHaze
3:15 PM-14 °C-20 °C61 %1017.3 hPa8 kmNW (310°)16.7 km/h38.9 km/hHaze
3:35 PM-15 °C-21 °C61 %1017.6 hPa16.1 kmNW (320°)22.2 km/h37 km/hScattered Clouds
3:55 PM-15 °C-20 °C66 %1017.9 hPa8 kmNW (310°)14.8 km/h35.2 km/hHaze
4:15 PM-15 °C-21 °C61 %1018.3 hPa11.3 kmNW (310°)22.2 km/h29.6 km/hOvercast
4:35 PM-15 °C-19 °C72 %1018.6 hPa4 kmNW (310°)16.7 km/h29.6 km/hSnowLight Snow
4:55 PM-15 °C-21 °C61 %1018.6 hPa11.3 kmWNW (300°)29.6 km/h38.9 km/hMostly Cloudy
5:15 PM-16 °C-21 °C66 %1019.3 hPa16.1 kmWNW (300°)20.4 km/h35.2 km/hMostly Cloudy
5:35 PM-16 °C-22 °C61 %1019.3 hPa16.1 kmWNW (300°)22.2 km/h40.7 km/hClear
5:55 PM-16 °C-21 °C66 %1019.6 hPa16.1 kmWNW (300°)18.5 km/h40.7 km/hClear
6:15 PM-16 °C-21 °C66 %1020.3 hPa16.1 kmWNW (300°)27.8 km/h35.2 km/hClear
6:35 PM-16 °C-21 °C66 %1020.7 hPa16.1 kmWNW (300°)22.2 km/h27.8 km/hClear
6:55 PM-16 °C-21 °C66 %1021 hPa16.1 kmWNW (290°)22.2 km/h29.6 km/hScattered Clouds
7:15 PM-17 °C-22 °C66 %1021 hPa16.1 kmWNW (290°)22.2 km/h37 km/hScattered Clouds
7:35 PM-17 °C-22 °C66 %1021 hPa16.1 kmWNW (300°)20.4 km/h29.6 km/hClear
8:15 PM-17 °C-23 °C61 %1021.7 hPa16.1 kmWNW (300°)18.5 km/h33.3 km/hClear
8:35 PM-18 °C-22 °C72 %1022 hPa16.1 kmWest (280°)18.5 km/h29.6 km/hClear
8:55 PM-18 °C-23 °C66 %1022 hPa16.1 kmWNW (290°)20.4 km/hClear
9:15 PM-18 °C-23 °C66 %1022.4 hPa16.1 kmWNW (300°)18.5 km/h27.8 km/hClear
9:35 PM-18 °C-23 °C66 %1022.7 hPa16.1 kmWNW (290°)18.5 km/h31.5 km/hClear
10:15 PM-19 °C-24 °C66 %1023 hPa16.1 kmWNW (290°)25.9 km/h31.5 km/hClear
10:35 PM-19 °C-24 °C66 %1023.4 hPa16.1 kmWNW (290°)24.1 km/h33.3 km/hClear
10:55 PM-19 °C-24 °C66 %1023.4 hPa16.1 kmWNW (290°)24.1 km/h35.2 km/hClear
11:15 PM-20 °C-24 °C71 %1023.7 hPa16.1 kmWNW (300°)16.7 km/h25.9 km/hClear
11:35 PM-20 °C-25 °C65 %1023.7 hPa16.1 kmWNW (300°)24.1 km/h29.6 km/hClear
11:55 PM-21 °C-25 °C71 %1024 hPa16.1 kmWNW (300°)16.7 km/h29.6 km/hClear
Hourly data recorded from KRGK, located 0 kilometers away from Red Wing, Minnesota







STORIES FROM OUR PARTNERS